Theta_e
292 295 298 300 300 299 299 298 298 296 296 295 295 292 292 292 292 292 292 291 291 291
290 290 292 295 299 298 300 299 298 297 295 295 294 292 292 291 291 291 291 291 291 290
288 289 290 292 293 296 298 299 296 296 294 293 292 292 291 291 290 290 290 290 290 290
287 287 288 288 289 290 294 295 295 295 294 292 292 291 290 290 290 289 289 290 289 289
286 286 286 286 286 287 289 292 293 293 293 293 291 291 290 289 289 289 288 288 288 289
283 284 283 283 284 285 285 286 289 291 291 291 290 290 290 290 289 289 289 289 288 288
281 281 282 282 282 282 283 285 286 288 288 287 287 288 288 289 288 288 288 289 289 289
277 277 277 279 280 281 281 282 283 286 286 286 287 288 287 288 288 288 287 287 288 289
273 273 274 275 278 280 281 280 279 282 285 286 287 290 290 289 287 287 287 286 286 287
267 271 272 272 273 276 279 282 282 284 283 285 287 290 291 289 287 287 287 286 286 286
266 269 271 271 271 272 277 280 284 283 285 284 285 289 291 289 287 286 286 286 286 286
267 269 268 271 272 273 276 278 282 285 284 285 285 288 290 289 286 285 285 285 286 286
269 270 268 271 271 273 275 278 281 284 286 285 285 287 290 290 286 285 284 284 285 285
271 272 272 273 274 274 275 277 277 282 285 285 285 285 289 291 286 286 284 283 283 285
Wind_Speed
11 6 3 1 3 4 5 6 7 7 6 6 6 4 5 4 4 4 4 6 5 4
9 9 7 6 2 3 5 4 6 8 8 7 6 6 7 4 5 4 4 5 5 3
9 9 9 7 7 4 3 4 6 6 6 6 6 7 5 5 5 5 4 3 5 4
8 8 7 8 7 6 6 4 5 5 6 7 7 6 6 5 6 7 5 5 6 6
7 7 8 7 8 8 6 5 4 5 6 6 7 8 8 7 7 9 7 7 6 7
6 7 7 8 8 7 7 5 4 4 6 7 7 8 9 10 8 8 8 8 8 8
7 7 7 7 7 7 7 5 4 4 5 5 6 6 7 8 9 8 8 8 8 8
5 5 6 7 7 7 6 6 4 4 4 4 6 6 9 8 9 8 7 7 7 6
5 5 6 5 8 8 7 6 4 4 4 5 5 11 16 11 8 8 9 8 6 6
5 5 5 5 5 6 9 8 6 4 4 5 6 12 15 16 8 9 8 8 8 6
4 6 6 6 5 5 4 7 9 6 4 5 5 12 15 16 7 7 8 8 9 9
5 6 5 6 7 5 5 6 8 8 6 5 5 12 15 14 8 7 8 8 8 9
5 5 5 6 6 4 5 7 6 9 6 6 6 10 15 16 6 8 6 6 8 12
5 6 6 5 3 5 6 6 7 8 7 6 6 7 15 20 9 8 8 8 8 8
Wind_Direction
17 9 0 184 174 186 195 200 181 186 186 177 190 210 143 194 208 200 205 205 208 207
12 10 6 342 254 199 203 189 186 190 187 190 181 186 171 180 197 202 199 199 200 201
3 6 356 10 1 317 251 207 180 187 191 179 179 178 179 173 171 199 204 183 190 191
4 360 4 1 356 354 319 255 199 193 186 192 188 182 168 202 153 204 198 195 191 192
357 2 1 357 346 339 332 300 246 197 196 193 199 178 184 194 177 190 191 202 191 192
358 360 357 341 334 335 326 316 278 225 204 201 193 195 196 187 185 184 190 192 193 188
354 349 341 327 324 324 323 312 284 248 220 196 180 184 189 189 175 183 190 192 188 181
330 329 324 333 331 321 321 318 297 261 235 207 183 187 187 194 181 178 189 193 176 180
322 329 328 328 331 333 320 320 318 273 239 211 220 209 201 187 183 178 185 187 174 170
291 308 316 316 330 332 333 318 305 287 244 238 227 223 206 192 185 181 189 180 172 171
271 278 300 317 314 306 311 318 313 288 255 236 230 236 216 192 173 184 181 180 178 178
250 268 287 303 309 306 302 311 306 291 261 237 238 223 220 189 179 180 185 177 173 178
229 243 265 276 292 277 291 286 291 291 255 239 244 222 215 195 184 180 177 184 173 185
223 237 245 270 256 282 292 288 289 286 272 243 223 228 220 206 192 194 178 184 182 189